Regional Weather Roundup
Issued by NWS Sterling, VA

Home | Current Version | Previous Version | Graphics & Text | Print | Product List | Glossary On
Versions: 1 2 3 4 5 6 7 8 9 10 11 12 13 14 15 16 17 18 19 20 21 22 23 24 25 26 27 28 29 30 31 32 33 34 35 36 37 38 39 40 41 42 43 44 45 46 47 48 49 50
000
ASUS41 KLWX 262110
RWRLWX

REGIONAL WEATHER ROUNDUP
NATIONAL WEATHER SERVICE BALTIMORE MD/WASHINGTON DC
500 PM EDT SUN APR 26 2015

Note: "FAIR" indicates few or no clouds below 12,000 feet
with no significant weather and/or obstructions to visibility.
 TC=TEMPERATURE CELSIUS

 * =Non NWS site. Station does not report precipitation (e.g. rain,
    snow, etc.), thunder, or fog.

DCZ001-MDZ009-015-VAZ040>042-051-053>054-262200-
WASHINGTON METRO

CITY           SKY/WX    TMP DP  RH WIND       PRES   REMARKS
WASHINGTON NAT PTSUNNY   67  34  29 NW10      29.68S
DULLES         PTSUNNY   62  29  28 VRB3      29.68F
ANDREWS AFB    MOSUNNY   62  30  29 N8        29.66F
FT BELVOIR     MOSUNNY   65  32  28 W6        29.68S
QUANTICO       MOSUNNY   63  36  36 SE5       29.69F
COLLEGE PARK*  PTSUNNY   63  32  31 N9        29.67F
LEESBURG*      SUNNY     63  34  34 N7        29.69F
MANASSAS*      MOSUNNY   63  34  34 NW12      29.69
GAITHERSBURG*  PTSUNNY   63  32  31 NE6       29.71F

$$

MDZ006>007-011-014-262200-
BALTIMORE METRO

CITY           SKY/WX    TMP DP  RH WIND       PRES   REMARKS
BWI AIRPORT    MOSUNNY   63  29  27 NW5       29.67S
MD SCIENCE CTR   N/A     64  24  21 MISG      29.68S
MARTIN STATE   MOSUNNY   63  37  39 SE8       29.69F
ANNAPOLIS      MOSUNNY   57  35  43 SE6       29.67F
FORT MEADE*    SUNNY     63  30  29 N12       29.70S

$$

MDZ012-015-019>023-262200-
MARYLAND EASTERN SHORE

CITY           SKY/WX    TMP DP  RH WIND       PRES   REMARKS
OCEAN CITY     SUNNY     52  42  69 E10       29.69S
SALISBURY      CLOUDY    59  35  40 E6        29.66F
BAY BRIDGE AP*   N/A    N/A N/A N/A N6        29.68S
CAMBRIDGE*     SUNNY     63  30  29 NW9       29.67S

$$

MDZ017>025-262200-
SOUTHERN MARYLAND

CITY           SKY/WX    TMP DP  RH WIND       PRES   REMARKS
PATUXENT RIVER PTSUNNY   60  33  36 NE8       29.68F
ST INIGOES     SUNNY     59  38  45 SW7       29.68F
LEONARDTOWN*   SUNNY     61  28  29 NE3       29.70S

$$

MDZ003>005-262200-
NORTH CENTRAL MARYLAND

CITY           SKY/WX    TMP DP  RH WIND       PRES   REMARKS
FREDERICK*     SUNNY     64  23  20 N8        29.71F
HAGERSTOWN APT SUNNY     62  29  28 N12       29.68F
WESTMINSTER*   SUNNY     61  25  25 NW8       29.69S

$$

MDZ501>502-262200-
WESTERN MARYLAND

CITY           SKY/WX    TMP DP  RH WIND       PRES   REMARKS
OAKLAND*       SUNNY     52  28  40 N8        29.71S
CUMBERLAND*    NOT AVBL

$$

VAZ025>031-262200-
SHENANDOAH VALLEY

CITY           SKY/WX    TMP DP  RH WIND       PRES   REMARKS
WINCHESTER*    SUNNY     63  18  17 CALM      29.68F
FRONT ROYAL*   FAIR      61  34  36 CALM      29.68S
LURAY*         MOCLDY    63  37  39 S3        29.69S
NEW MARKET*    FAIR      57  36  44 E3        29.68F
STAUNTON*      MOSUNNY   59  33  37 E5        29.71F
WAYNESBORO*    FAIR      55  35  46 N5        29.71S

$$

WVZ021-048>050-054>055-262200-
EASTERN WEST VIRGINIA PANHANDLE

CITY           SKY/WX    TMP DP  RH WIND       PRES   REMARKS
MARTINSBURG    SUNNY     64  29  26 MISG      29.68F
PETERSBURG*    MOSUNNY   61  30  31 CALM      29.69F

$$

VAZ036>039-050-262200-
CENTRAL FOOTHILLS

CITY           SKY/WX    TMP DP  RH WIND       PRES   REMARKS
CHARLOTTESVILL MOSUNNY   61  35  37 CALM      29.69F
CULPEPER*      MOSUNNY   64  34  32 NE5       29.70S
ORANGE*        MOSUNNY   61  34  36 N3        29.71S
GORDONSVILLE*  FAIR      61  34  36 N5        29.69F
WARRENTON*     FAIR      64  36  35 NW8       29.69S

$$

VAZ055>057-262200-
NORTH AND CENTRAL PIEDMONT

CITY           SKY/WX    TMP DP  RH WIND       PRES   REMARKS
FREDERICKSBRG* MOSUNNY   63  34  33 N5        29.68S
STAFFORD*      MOSUNNY   62  31  31 N9        29.72F

$$

NCZ024-NYZ072-PAZ021-071-VAZ022-071-262200-
OTHER REGIONAL OBSERVATIONS

CITY           SKY/WX    TMP DP  RH WIND       PRES   REMARKS
NEW YORK CITY  CLOUDY    60  27  28 VRB6      29.67F
PHILADELPHIA   PTSUNNY   61  29  29 CALM      29.67S
PITTSBURGH     MOSUNNY   57  27  31 N13G20    29.75S
ROANOKE        CLOUDY    52  44  74 NW3       29.76F
RICHMOND       PTSUNNY   61  38  42 N12       29.70S
RALEIGH        CLOUDY    52  46  80 N5        29.73R

$$

ANZ530>537-262200-
MARINE OBSERVATIONS

STATION/POSITION TIME  TEMP    WIND        PRES
                       AIR SEA DIR/SP/G
                 (UTC) (F)     (DEG/KT/KT) (MB)
THOMAS PT LIGHT  2100   58 54   30/  2/  2 1005.7F
BALT KEY BRIDGE  2000   57     120/  7/ 10 1004.8F
COVE POINT       2000   55     320/  2/  2 1006.1F
LEWISETTA        2000   56 57              1005.1F
SOLOMONS ISLAND  2000      56                N/A
PINEY POINT      2000          170/  4/  5   N/A

$$




USA.gov is the U.S. government's official web portal to all federal, state and local government web resources and services.